Wetbulb
58.88 63.88 67.60 67.84 68.35 68.17 67.18 68.04 68.16 67.95 67.00 64.61 63.08 61.73 59.54 57.44 55.18 53.07 52.00 51.40 51.24 51.25 51.40 51.19 48.94 49.10 48.13 48.41 48.75 48.36 47.00 46.53 44.28 45.95 46.72 48.25 45.10 44.76 45.50 45.95 46.46 45.87 46.78
61.92 64.93 66.75 67.76 67.90 67.46 66.77 67.98 68.21 66.15 64.27 62.88 60.41 58.02 56.70 54.55 52.18 51.07 49.87 50.08 50.08 48.85 47.88 47.72 47.07 47.88 46.26 46.93 46.74 45.58 45.34 46.03 44.71 43.31 44.52 44.73 43.95 43.70 43.50 43.34 44.13 45.52 43.95
58.85 61.63 63.59 63.74 65.09 65.36 66.48 67.72 66.59 62.33 60.78 59.19 56.98 54.42 52.77 50.96 50.04 49.93 50.45 48.87 47.17 46.54 45.58 44.62 44.90 44.83 43.92 44.36 44.08 44.89 44.41 45.17 43.49 41.38 40.86 42.50 41.78 42.38 42.83 42.99 42.87 42.18 43.66
55.91 57.74 61.38 62.21 62.33 65.12 65.13 63.28 61.21 59.22 57.67 55.77 54.19 52.13 50.52 49.81 49.96 49.20 47.52 46.00 45.65 45.03 45.22 44.44 43.89 42.30 41.20 41.68 43.99 43.22 44.21 41.87 40.86 40.63 39.69 39.46 39.90 42.10 40.91 40.04 39.56 41.23 40.17
54.11 60.49 59.44 60.88 61.03 59.83 59.91 58.41 57.30 55.63 54.25 52.59 50.88 49.57 49.17 48.96 48.49 47.19 45.65 45.26 44.23 43.39 43.64 43.37 42.61 45.69 48.30 46.41 42.79 41.24 40.53 40.24 39.38 39.38 38.27 38.46 39.16 40.48 39.05 39.72 39.01 39.86 39.92
56.45 57.53 57.51 57.67 58.32 57.83 56.56 54.24 53.47 51.56 50.58 50.34 49.94 48.25 47.42 47.25 46.75 47.75 47.18 46.11 46.27 43.27 41.44 40.11 39.73 41.31 42.41 45.07 47.05 49.84 43.77 39.40 38.56 38.79 38.73 37.96 38.82 39.09 40.26 39.08 38.38 37.12 35.94
58.29 56.92 55.29 54.09 52.86 52.52 52.14 51.16 50.24 49.55 49.81 48.43 47.06 46.81 46.64 47.06 45.44 45.50 46.15 44.05 43.63 42.12 39.88 38.09 38.03 39.90 39.96 39.51 44.14 46.85 47.12 46.79 45.13 40.10 36.83 39.90 38.62 39.22 39.36 38.34 37.77 37.41 36.45
55.16 55.00 53.30 51.73 50.97 50.95 50.21 49.81 48.67 48.72 46.80 45.89 46.23 47.01 46.76 45.27 43.19 42.23 42.78 41.05 39.91 38.42 36.71 36.03 35.54 35.67 38.79 39.96 39.79 39.66 39.79 40.20 39.85 42.12 40.40 39.61 38.71 39.83 39.83 39.41 38.77 38.77 39.28
52.03 52.27 52.70 50.92 49.56 49.07 48.31 47.70 46.98 46.08 45.45 45.54 46.39 45.91 43.84 43.08 41.93 40.88 39.50 37.65 35.41 34.47 36.06 36.79 35.50 34.96 38.97 39.22 39.08 37.46 37.24 38.11 43.53 45.34 44.38 43.03 41.68 41.59 42.24 39.73 38.16 36.96 36.08
49.97 50.24 50.40 49.93 48.77 47.36 46.71 45.75 45.58 45.10 44.54 44.95 42.48 41.95 42.91 41.71 42.18 41.46 40.09 37.41 35.09 34.58 33.89 34.91 39.96 37.18 38.44 38.23 34.23 35.78 35.36 35.18 37.62 40.32 39.67 39.84 39.89 41.62 42.98 40.88 39.75 37.09 36.90
49.01 49.05 48.49 47.44 46.03 45.83 45.19 45.13 44.32 43.82 43.08 41.44 39.75 39.41 39.23 40.05 41.29 41.83 41.88 40.07 37.63 36.17 35.43 35.06 35.06 38.31 38.07 38.08 38.33 35.12 35.44 37.83 40.27 39.41 38.13 38.37 40.02 40.16 40.55 40.81 40.51 39.38 37.83
47.98 47.54 47.10 46.69 46.26 44.75 43.19 43.18 43.48 42.74 40.66 39.01 37.95 37.16 37.37 38.45 40.85 40.44 40.52 39.84 39.35 35.38 35.06 35.86 35.44 37.74 37.60 37.64 37.65 38.80 39.72 39.66 39.61 37.57 35.73 38.13 38.32 39.10 40.17 40.62 41.00 40.69 41.27
46.26 44.80 44.26 44.37 44.09 43.96 42.70 41.95 41.31 41.47 40.30 38.53 36.92 35.98 35.89 36.10 36.18 39.84 39.01 39.43 40.54 36.57 36.54 37.69 38.23 38.25 39.67 39.44 40.33 40.37 39.50 36.86 37.38 35.60 34.83 37.80 38.91 40.05 40.74 40.67 41.03 40.94 41.09
44.16 44.10 44.39 43.59 43.04 42.99 42.92 42.50 41.05 39.14 37.84 37.05 35.77 35.27 34.66 33.83 33.94 34.58 35.77 35.76 39.66 38.39 39.28 38.73 39.98 39.83 40.49 40.63 38.92 38.89 38.76 38.59 36.73 34.17 37.27 39.19 40.41 39.75 39.38 40.01 38.96 38.78 38.03
44.14 43.91 43.24 41.16 38.58 36.53 36.55 39.27 39.54 40.11 38.35 35.83 35.82 36.96 35.86 33.74 32.73 36.01 37.43 34.77 33.97 34.96 38.00 37.09 36.49 35.73 35.63 36.05 36.24 37.53 37.53 37.48 36.16 35.18 38.60 38.41 39.05 38.89 38.80 40.00 39.10 37.96 36.39
41.57 40.99 39.58 37.75 36.57 36.71 35.84 34.61 36.06 37.13 37.10 36.37 35.98 35.37 33.18 34.57 35.46 35.79 35.83 36.12 37.76 38.32 36.43 34.53 34.18 34.36 34.18 34.38 35.54 35.42 36.23 36.90 35.87 38.74 38.68 38.73 38.42 37.72 38.02 39.16 38.99 37.36 36.04
38.83 38.14 37.48 36.57 35.78 35.28 34.93 33.93 32.09 33.99 35.87 35.63 35.38 35.44 34.92 34.43 35.31 36.34 37.40 37.10 37.09 37.71 35.79 35.26 34.06 33.96 34.67 34.46 34.88 34.75 34.27 34.93 37.18 38.78 38.66 38.51 38.52 38.08 38.05 37.96 38.22 37.20 36.11
39.35 38.57 36.95 36.34 35.62 34.47 33.67 33.36 33.50 32.34 31.65 32.69 34.10 33.89 34.92 34.93 35.44 36.95 36.79 38.38 37.21 36.97 35.04 34.62 34.56 34.06 34.51 33.50 33.48 33.81 34.15 34.55 35.19 36.40 37.15 37.63 37.75 37.02 36.49 37.32 38.04 36.61 35.78
39.87 38.93 38.42 37.73 36.55 35.48 34.88 34.11 33.24 32.78 31.89 30.86 31.51 33.88 33.27 34.00 34.52 36.11 37.70 35.41 34.89 34.93 34.25 34.65 34.44 34.36 33.57 33.03 31.49 32.85 33.17 33.43 33.68 35.12 35.85 36.15 35.99 36.12 35.77 37.71 38.13 35.70 35.18
39.95 38.97 38.43 38.21 36.67 34.92 33.63 33.38 33.60 33.78 33.38 33.50 32.49 32.69 35.18 37.79 37.36 36.75 36.26 36.13 35.09 33.84 34.72 34.71 34.82 33.76 32.40 30.72 30.40 30.89 31.88 32.70 32.52 33.17 34.38 35.24 35.32 34.86 34.89 36.88 37.96 36.89 36.34
40.05 40.27 36.87 37.84 36.35 35.25 34.90 34.31 34.98 35.51 35.10 35.80 36.20 35.82 34.04 37.14 35.74 35.40 35.15 35.11 34.22 34.85 34.83 34.41 33.78 32.63 31.18 30.79 30.07 29.71 29.77 30.25 30.95 32.12 32.93 34.07 33.95 33.09 34.89 35.50 36.65 37.26 36.49
40.45 40.69 39.70 37.35 37.55 37.06 36.57 36.36 36.77 37.01 36.45 36.02 35.98 36.13 34.15 37.23 36.13 35.28 34.90 34.98 35.47 35.47 34.79 34.00 32.69 31.55 30.51 30.03 29.71 28.19 27.34 27.46 28.78 30.80 31.27 32.82 32.80 33.92 34.50 34.89 36.01 36.43 36.22
41.55 41.03 39.31 38.95 39.80 36.87 39.05 38.70 37.71 37.05 37.02 37.17 37.85 37.61 37.14 35.73 34.95 34.53 35.22 34.63 34.67 34.12 33.67 32.64 30.95 30.21 29.72 29.81 30.09 28.85 27.29 26.75 26.82 28.59 28.75 31.22 31.46 32.79 33.28 33.43 35.59 36.04 35.83
42.06 41.27 40.24 40.44 40.54 39.42 38.76 37.94 37.19 35.88 37.84 37.88 37.45 36.89 36.13 35.10 35.02 35.09 34.90 34.62 34.34 33.13 32.99 31.80 30.72 29.38 28.71 28.70 29.25 29.31 28.40 27.98 28.71 28.92 30.32 32.22 30.67 32.17 32.95 33.62 35.02 36.52 35.69
41.97 41.30 40.96 40.52 39.66 38.50 38.12 37.96 37.65 38.66 38.54 38.13 37.45 36.81 35.65 35.45 34.86 35.39 34.23 34.09 33.58 32.85 31.95 30.77 29.14 29.08 28.78 28.79 29.15 29.45 29.42 30.25 30.28 30.24 31.26 33.46 31.95 32.28 32.35 33.18 34.75 35.65 35.08
41.75 41.68 41.45 40.23 39.24 39.02 38.34 39.11 38.81 38.58 37.99 37.71 37.07 35.85 35.07 34.37 33.91 34.16 33.81 33.36 32.05 30.88 29.80 28.65 28.43 28.78 28.68 28.51 29.18 29.53 29.80 30.22 30.65 30.68 32.61 33.04 31.44 30.97 31.00 32.35 33.80 35.00 34.75
MSLP
994.89 995.72 996.40 997.01 997.54 998.44 999.22 999.67 1000.88 1001.47 1002.79 1003.83 1005.00 1006.23 1007.29 1008.61 1009.59 1010.61 1011.53 1012.00 1012.50 1013.07 1013.78 1014.52 1015.12 1015.38 1015.59 1015.73 1016.15 1015.86 1016.73 1016.39 1016.11 1015.56 1015.22 1014.91 1015.26 1015.00 1014.61 1014.14 1013.63 1012.94 1012.48
994.58 995.23 995.79 996.67 997.14 997.79 998.60 999.17 1000.59 1000.87 1002.55 1003.86 1005.22 1006.25 1007.47 1009.01 1010.21 1010.86 1011.64 1012.44 1013.19 1013.79 1014.51 1015.13 1015.47 1015.94 1016.45 1016.50 1016.51 1016.49 1016.79 1016.21 1016.03 1016.01 1015.76 1015.92 1015.70 1015.28 1015.07 1014.51 1013.74 1013.17 1012.85
995.09 995.55 996.15 996.75 997.19 997.55 998.25 999.00 1000.35 999.26 1001.38 1004.05 1005.83 1006.63 1008.03 1009.77 1010.71 1011.62 1012.04 1013.07 1013.95 1014.42 1015.23 1015.68 1016.17 1016.47 1017.01 1016.79 1016.87 1016.53 1016.65 1016.09 1016.19 1016.54 1016.55 1016.20 1015.87 1015.45 1014.77 1014.45 1013.87 1013.30 1012.82
997.13 996.90 996.53 996.65 997.25 997.77 998.82 999.78 999.98 999.73 1003.85 1005.40 1005.92 1007.36 1008.91 1010.42 1011.69 1012.29 1013.05 1013.82 1014.44 1015.03 1015.96 1016.48 1016.89 1017.27 1017.48 1017.28 1017.19 1017.32 1016.51 1016.89 1016.69 1016.76 1016.68 1016.53 1016.09 1015.43 1015.30 1014.81 1013.65 1013.32 1012.81
997.42 997.57 997.59 997.35 998.27 999.44 1000.15 998.64 1002.72 1003.38 1004.37 1004.81 1007.14 1008.59 1010.31 1011.31 1012.27 1013.05 1013.64 1014.32 1014.72 1015.42 1016.19 1016.79 1017.30 1017.50 1017.48 1017.40 1017.41 1017.18 1017.21 1017.17 1016.80 1016.84 1016.91 1016.85 1016.10 1015.68 1015.33 1015.06 1014.96 1014.44 1013.20
997.26 998.58 997.83 998.32 999.69 1000.17 1001.01 1002.12 1002.58 1003.72 1005.30 1006.26 1008.42 1009.73 1011.37 1012.07 1012.90 1013.53 1013.68 1014.19 1015.01 1016.02 1016.75 1017.27 1017.61 1017.81 1017.95 1017.35 1016.67 1016.83 1016.97 1016.97 1016.89 1017.10 1017.27 1017.10 1016.70 1016.29 1015.97 1015.80 1015.19 1014.55 1013.48
997.31 998.57 998.59 999.25 1001.07 1002.54 1003.53 1003.40 1001.66 1005.01 1006.75 1008.40 1009.37 1010.87 1012.21 1013.07 1013.89 1013.72 1013.93 1014.85 1015.67 1016.79 1017.75 1017.81 1018.37 1018.61 1018.02 1017.60 1017.55 1017.41 1017.05 1016.78 1016.89 1017.19 1017.34 1017.26 1016.87 1016.89 1016.57 1015.97 1015.56 1015.10 1014.49
999.45 999.70 1000.10 1000.35 1000.93 1003.07 1003.46 1004.31 1004.86 1007.03 1007.89 1009.31 1010.75 1011.75 1013.14 1014.26 1014.25 1013.99 1014.55 1015.33 1016.64 1017.48 1018.09 1018.40 1018.45 1018.41 1018.35 1018.36 1017.87 1017.80 1017.23 1016.75 1016.98 1016.62 1017.10 1016.89 1016.76 1016.86 1016.76 1016.33 1015.75 1015.06 1014.18
1000.74 1000.85 1001.61 1001.58 1001.85 1003.85 1005.08 1005.21 1006.29 1006.87 1009.04 1011.34 1011.72 1012.57 1013.84 1014.63 1014.71 1014.71 1014.93 1016.54 1017.41 1018.20 1018.56 1018.71 1018.92 1018.81 1018.90 1018.96 1018.60 1018.19 1017.69 1017.38 1017.09 1017.04 1017.29 1017.06 1016.71 1016.78 1016.62 1015.94 1015.32 1015.06 1014.33
1002.21 1002.31 1002.38 1002.75 1003.28 1004.34 1006.10 1007.33 1007.64 1008.47 1009.97 1011.22 1012.65 1013.61 1014.39 1014.66 1014.97 1015.50 1016.61 1017.26 1017.91 1018.53 1019.00 1019.22 1018.95 1018.80 1019.35 1019.58 1019.07 1018.86 1018.58 1018.17 1018.17 1017.84 1017.52 1017.26 1017.15 1016.87 1016.46 1015.97 1015.63 1015.21 1014.42
1003.18 1003.73 1004.32 1004.45 1004.73 1006.16 1007.15 1008.84 1009.01 1009.59 1010.59 1012.23 1013.32 1014.39 1014.47 1015.02 1015.87 1016.76 1017.41 1017.82 1018.17 1018.99 1019.45 1019.33 1019.19 1019.41 1019.45 1019.55 1019.26 1019.15 1018.87 1018.45 1018.58 1018.42 1018.12 1017.89 1017.18 1016.78 1016.23 1015.86 1015.43 1015.16 1014.46
1004.35 1004.46 1005.93 1006.54 1007.18 1007.50 1007.55 1009.81 1010.68 1011.16 1011.89 1013.08 1013.75 1014.60 1015.77 1016.23 1016.81 1017.15 1017.58 1018.07 1018.40 1018.86 1019.47 1019.55 1019.79 1019.75 1019.78 1019.93 1019.57 1019.48 1019.07 1018.94 1019.17 1018.93 1018.72 1018.08 1017.51 1017.03 1016.53 1015.87 1015.27 1014.65 1014.03
1005.57 1005.87 1007.95 1008.26 1008.37 1009.10 1010.15 1010.74 1011.22 1012.15 1012.55 1013.51 1014.45 1015.68 1016.97 1017.47 1017.86 1017.98 1018.30 1018.76 1018.99 1019.21 1019.59 1019.83 1019.94 1019.93 1019.97 1020.33 1020.14 1020.09 1019.79 1019.88 1019.70 1019.43 1019.10 1018.57 1018.12 1017.56 1016.81 1015.96 1015.08 1014.45 1013.56
1006.74 1007.73 1009.18 1009.35 1009.91 1011.14 1011.69 1012.30 1012.06 1012.51 1013.51 1014.56 1015.75 1016.87 1017.81 1018.46 1018.77 1019.03 1019.24 1019.40 1019.48 1019.72 1019.89 1020.00 1020.18 1020.28 1020.45 1020.79 1020.85 1020.57 1020.52 1020.41 1020.16 1019.86 1019.61 1018.98 1018.43 1017.71 1016.98 1016.15 1015.31 1014.33 1013.66
1008.34 1008.88 1009.96 1011.14 1011.64 1012.54 1013.35 1013.87 1013.87 1014.28 1014.79 1015.65 1016.89 1017.52 1018.26 1019.36 1019.80 1019.71 1019.69 1019.85 1019.96 1020.13 1020.27 1020.58 1021.05 1021.05 1021.33 1021.55 1021.71 1021.39 1021.13 1020.89 1020.65 1020.34 1020.02 1019.36 1018.74 1017.99 1017.20 1016.33 1015.60 1014.92 1014.43
1010.17 1010.80 1011.95 1012.47 1012.93 1013.41 1014.21 1015.11 1015.55 1015.42 1015.89 1016.63 1017.35 1017.94 1019.18 1019.66 1019.94 1019.86 1019.94 1020.11 1020.26 1020.60 1021.22 1021.71 1021.85 1021.91 1021.91 1022.26 1022.50 1022.12 1021.81 1021.59 1021.45 1020.85 1020.38 1019.67 1019.07 1018.22 1017.40 1016.44 1015.99 1015.56 1015.00
1011.56 1012.31 1012.84 1013.32 1014.17 1014.93 1015.49 1015.75 1016.41 1017.50 1017.57 1017.93 1018.40 1019.12 1019.57 1019.80 1020.10 1020.17 1020.45 1020.69 1021.36 1021.62 1022.07 1022.34 1022.59 1022.72 1022.48 1022.93 1022.97 1022.81 1022.64 1022.51 1022.15 1021.63 1020.83 1019.98 1019.30 1018.50 1017.77 1017.17 1016.70 1016.17 1015.39
1013.24 1013.74 1013.97 1014.64 1015.22 1015.77 1016.58 1016.71 1017.00 1017.72 1018.76 1019.49 1019.75 1019.89 1019.99 1020.11 1020.46 1020.78 1021.41 1021.69 1022.40 1022.69 1022.78 1023.20 1023.26 1023.29 1023.51 1023.43 1023.46 1023.43 1023.31 1023.17 1022.71 1022.14 1021.36 1020.33 1019.43 1018.84 1018.27 1017.75 1017.30 1016.95 1016.22
1014.46 1015.13 1015.48 1015.74 1016.25 1016.63 1017.09 1017.47 1017.97 1018.65 1019.41 1019.85 1020.19 1020.28 1020.42 1020.92 1021.16 1021.76 1022.13 1022.66 1023.12 1023.40 1023.66 1023.83 1023.84 1024.14 1024.09 1024.01 1024.15 1024.09 1023.95 1023.75 1023.34 1022.77 1021.69 1020.73 1020.05 1019.39 1019.05 1018.47 1017.87 1017.41 1016.80
1015.41 1015.51 1016.20 1016.81 1017.15 1017.43 1017.88 1018.04 1018.70 1019.16 1019.73 1020.27 1020.68 1021.05 1021.38 1021.64 1022.21 1023.02 1023.09 1023.21 1023.71 1024.01 1024.14 1024.45 1024.81 1024.79 1024.81 1025.04 1024.99 1024.77 1024.57 1024.40 1024.01 1023.17 1022.18 1021.48 1020.75 1020.07 1019.67 1019.11 1018.50 1017.86 1017.24
1016.53 1017.01 1017.39 1017.25 1017.57 1018.07 1018.61 1018.99 1019.18 1019.95 1020.32 1020.74 1021.35 1021.53 1021.96 1022.53 1023.28 1023.66 1023.77 1024.23 1024.55 1024.65 1024.86 1025.11 1025.33 1025.56 1025.83 1025.63 1025.56 1025.58 1025.30 1024.97 1024.41 1023.61 1022.96 1022.32 1021.39 1020.79 1020.18 1019.68 1019.13 1018.51 1017.95
1017.39 1017.49 1017.21 1017.66 1018.11 1018.68 1019.13 1019.65 1020.01 1020.35 1020.92 1021.51 1022.11 1022.35 1022.63 1023.37 1023.71 1024.23 1024.77 1025.11 1025.24 1025.36 1025.61 1025.72 1026.18 1026.47 1026.32 1026.20 1026.28 1026.21 1025.85 1025.39 1024.79 1024.36 1023.73 1023.01 1022.07 1021.44 1020.79 1020.34 1019.73 1019.19 1018.61
1016.97 1017.18 1017.60 1018.01 1018.35 1019.13 1019.62 1020.08 1020.53 1021.03 1021.55 1022.06 1022.39 1022.87 1023.52 1023.84 1024.47 1025.16 1025.47 1025.60 1025.80 1026.27 1026.33 1026.67 1026.96 1026.96 1027.07 1026.96 1026.77 1026.61 1026.32 1025.85 1025.51 1024.88 1024.25 1023.47 1022.80 1022.17 1021.54 1021.00 1020.45 1019.79 1019.39
1016.99 1017.46 1017.77 1018.19 1018.68 1019.34 1019.97 1020.56 1021.02 1021.48 1021.96 1022.54 1023.07 1023.59 1023.92 1024.55 1025.35 1025.72 1025.97 1026.14 1026.47 1026.95 1027.21 1027.24 1027.47 1027.86 1027.89 1027.52 1027.15 1026.76 1026.39 1026.03 1025.44 1024.82 1024.28 1023.66 1023.27 1022.82 1022.18 1021.55 1021.07 1020.53 1020.27
1017.25 1017.51 1017.99 1018.56 1019.18 1019.82 1020.41 1020.99 1021.42 1021.89 1022.61 1023.14 1023.74 1024.17 1024.66 1025.38 1025.76 1026.25 1026.59 1026.95 1027.23 1027.45 1027.77 1028.19 1028.41 1028.41 1028.14 1027.86 1027.59 1027.18 1026.67 1026.16 1025.46 1024.79 1024.34 1023.82 1023.79 1023.39 1022.87 1022.28 1021.75 1021.30 1021.12
1017.33 1017.81 1018.37 1018.84 1019.49 1020.14 1020.75 1021.21 1021.89 1022.55 1023.20 1023.81 1024.32 1024.77 1025.42 1025.92 1026.32 1026.77 1027.12 1027.55 1027.91 1028.38 1029.02 1029.37 1029.28 1028.81 1028.59 1028.48 1028.25 1027.66 1027.01 1026.53 1025.92 1025.12 1024.67 1024.51 1024.23 1024.03 1023.62 1023.11 1022.53 1022.09 1021.79
Wind_Speed
20 16 15 14 15 14 13 16 13 19 19 20 19 17 18 14 14 13 12 12 13 12 9 9 9 7 5 4 3 4 4 2 1 3 2 6 7 11 10 8 10 10 10
9 13 14 11 12 14 15 17 11 20 21 20 19 19 18 15 14 14 14 12 12 11 10 10 9 7 6 5 3 5 2 3 3 4 3 5 6 11 8 10 10 10 10
2 2 5 7 9 10 12 14 20 21 24 18 19 19 18 15 14 12 13 13 12 12 10 10 8 6 4 3 2 4 2 5 5 3 3 4 3 5 9 9 10 11 9
11 14 7 7 5 8 14 19 22 22 19 17 17 17 18 15 14 14 14 13 13 12 10 9 8 6 5 5 4 4 6 5 4 3 3 3 3 5 2 8 12 10 11
12 3 5 7 12 15 13 24 18 19 17 21 19 17 16 15 11 14 13 13 14 13 10 10 7 8 13 6 1 4 3 2 3 3 3 2 3 7 10 8 8 9 12
10 6 13 14 17 14 16 16 20 22 18 21 18 18 14 11 17 18 15 12 11 11 10 7 7 10 7 12 14 6 6 2 3 3 2 3 5 5 7 8 8 8 6
12 9 15 18 18 16 10 20 20 20 21 19 18 18 16 15 13 17 20 13 13 12 8 7 7 6 9 7 9 10 4 3 1 1 2 4 4 4 6 10 10 9 8
9 9 13 17 20 16 15 18 20 17 20 18 18 18 15 12 20 22 22 16 12 10 7 6 6 6 8 6 7 7 7 6 6 5 3 3 2 4 4 6 8 10 9
11 9 9 17 23 18 16 18 19 22 20 15 14 16 15 13 18 20 19 13 11 9 6 6 6 6 11 14 7 9 10 9 8 12 10 11 8 5 9 8 7 8 8
13 11 10 16 17 22 16 14 17 20 21 15 14 12 13 13 16 17 14 9 10 6 5 5 9 8 8 10 7 6 8 6 5 5 8 10 8 9 11 8 7 8 8
15 14 13 16 20 19 21 14 16 19 20 16 15 11 11 10 9 12 10 7 7 5 4 3 5 8 10 9 9 5 4 4 7 9 7 6 7 8 8 8 9 7 7
16 18 14 14 13 14 22 17 16 18 19 16 15 13 9 9 13 15 16 11 9 6 5 3 2 7 8 10 8 11 13 10 6 6 5 8 8 9 10 9 10 9 5
17 20 16 16 16 16 16 17 15 14 13 13 12 11 8 7 6 14 15 13 10 5 4 4 5 7 9 7 12 13 10 6 6 6 6 7 7 8 10 9 9 9 9
20 19 15 16 18 15 11 10 11 11 11 11 10 9 8 5 5 5 5 5 8 6 5 4 6 6 10 9 7 8 7 6 6 4 5 6 7 7 7 7 8 10 8
16 16 16 12 14 12 10 6 7 10 10 11 9 9 9 5 2 2 5 5 4 3 5 6 6 5 5 6 5 7 7 6 7 5 7 7 7 7 8 8 9 9 8
15 13 11 11 10 11 12 13 22 20 21 20 17 11 6 9 7 10 9 9 13 12 7 5 5 5 5 5 6 6 6 8 6 6 6 6 7 7 8 9 9 9 9
13 12 11 12 11 10 10 11 13 15 22 19 18 15 12 9 12 14 15 16 14 10 7 6 5 5 7 5 5 5 6 5 7 8 8 7 5 7 10 10 10 10 10
14 17 11 11 10 11 8 9 10 12 11 9 11 8 10 13 14 15 11 12 9 7 5 6 7 6 7 6 5 5 5 5 5 7 8 8 6 7 8 10 8 10 10
13 11 11 10 9 9 8 10 10 11 9 7 4 7 8 11 8 10 12 5 6 6 5 6 7 7 7 8 5 5 5 5 5 7 8 9 9 5 8 10 8 11 10
12 19 13 10 8 8 8 10 10 9 9 7 5 4 3 8 10 7 6 7 6 5 7 9 7 8 8 5 5 5 6 6 7 7 8 9 9 5 7 9 9 10 10
9 8 6 8 8 9 9 9 9 8 7 5 4 6 10 10 8 8 8 7 5 7 8 8 8 6 5 5 5 5 6 6 6 8 8 8 8 6 6 7 8 9 10
5 4 6 9 9 9 9 7 5 7 7 8 7 9 12 8 8 8 7 8 8 9 7 7 6 6 5 5 5 5 5 6 7 8 8 7 7 7 7 6 9 8 10
1 8 10 8 8 9 7 8 7 7 9 8 9 9 8 8 7 6 7 7 8 8 7 7 6 7 5 5 5 4 6 6 5 5 6 6 6 8 7 5 8 9 10
5 8 6 8 7 10 9 9 8 7 8 9 8 7 8 7 6 7 8 8 7 6 6 7 8 8 6 5 5 5 5 6 5 5 7 5 5 7 7 7 6 10 10
4 8 7 11 10 8 9 9 5 9 10 10 9 7 7 6 7 8 7 8 8 9 10 7 5 6 8 10 11 12 11 10 7 7 5 7 7 9 8 8 8 8 11
6 6 9 8 9 9 6 7 10 9 9 8 8 7 6 6 6 7 8 8 9 9 9 6 7 11 11 9 11 13 14 13 11 10 6 5 6 6 6 9 11 9 8
Wind_Direction
196 192 195 202 201 201 191 192 179 159 143 140 134 126 119 113 110 107 103 105 104 107 95 90 75 63 61 47 33 50 359 348 109 327 301 3 34 13 4 347 351 346 341
193 192 196 204 202 199 189 193 146 151 137 133 128 120 117 113 115 116 116 109 104 94 88 82 79 72 44 32 34 67 343 6 66 12 336 16 30 3 348 347 344 344 337
108 201 182 192 192 177 172 152 150 128 118 127 123 119 112 116 112 111 109 105 102 92 90 89 83 74 59 50 36 65 5 30 39 37 360 6 357 339 344 350 343 336 333
352 322 236 166 131 126 140 139 130 112 128 121 109 111 107 109 107 105 104 102 97 90 88 87 75 70 61 45 37 6 39 36 29 32 28 328 292 346 357 348 344 342 328
359 306 81 75 106 97 136 103 119 113 117 109 107 98 105 104 108 111 109 108 105 102 90 78 60 57 47 51 10 12 48 38 36 30 354 300 336 4 4 346 340 319 317
292 125 96 89 111 113 121 109 118 108 102 107 108 105 107 106 105 113 112 104 99 99 100 97 74 43 18 14 15 46 157 108 30 28 311 341 339 14 354 338 332 332 348
129 149 113 106 90 95 106 105 95 103 114 107 103 107 103 104 105 101 95 90 87 80 70 65 64 40 26 21 19 53 85 339 282 205 312 345 10 347 345 344 333 329 317
57 91 99 98 97 98 105 106 98 109 98 101 103 103 104 107 101 95 92 86 82 79 82 86 88 57 36 19 34 16 11 351 5 18 116 15 55 4 313 322 316 319 310
45 54 112 113 110 98 113 111 112 104 98 95 102 108 108 102 101 95 95 93 90 83 74 62 65 69 30 17 24 18 10 1 22 79 41 18 5 337 335 338 342 333 323
64 53 73 97 104 109 104 106 106 105 106 105 96 91 97 103 102 98 101 106 98 95 85 74 59 48 39 26 30 18 18 350 24 36 37 30 13 349 344 349 338 323 319
83 69 71 88 97 102 103 100 102 104 104 100 94 85 74 75 92 123 118 117 117 107 94 64 40 19 11 7 13 27 338 340 55 43 27 6 4 355 349 342 331 317 310
90 88 72 90 97 102 99 104 101 104 104 102 95 81 65 73 92 97 105 107 111 110 102 76 33 5 1 348 5 359 20 38 48 35 17 6 359 348 339 331 325 309 293
88 80 82 92 90 93 102 103 102 102 98 101 97 95 86 67 71 86 95 92 86 76 80 74 36 12 34 50 48 33 22 44 39 33 15 358 347 330 324 328 322 326 330
97 96 97 93 93 89 89 90 98 99 102 99 101 107 101 81 71 66 69 67 51 56 38 26 19 31 63 72 46 28 26 48 31 24 357 341 333 336 336 339 342 347 341
97 99 98 86 83 85 65 70 86 95 110 118 116 109 106 97 88 114 100 82 76 48 77 55 44 40 45 49 45 34 28 27 20 355 358 340 337 338 343 349 356 351 350
99 97 100 101 94 87 87 79 56 82 87 88 89 98 68 87 103 79 80 80 73 73 61 64 51 35 49 63 56 32 24 21 357 353 337 329 332 339 347 357 1 357 343
88 95 96 92 95 100 94 97 103 72 72 79 87 87 93 107 72 69 82 76 70 64 71 61 56 40 44 61 62 43 27 0 349 343 330 324 323 355 1 357 357 355 345
80 86 90 91 93 91 94 105 103 104 108 98 52 83 73 69 60 56 60 69 65 52 61 65 56 49 44 52 51 43 19 352 347 339 336 334 349 4 1 358 355 353 340
95 86 87 84 81 93 101 100 102 106 105 102 83 48 37 40 52 64 74 89 89 76 64 61 59 55 48 42 28 21 15 355 344 337 344 348 353 0 2 355 355 352 343
94 97 96 99 109 103 102 103 102 103 104 99 89 92 71 82 76 69 66 69 73 72 73 67 62 56 46 31 23 15 5 359 343 347 353 350 346 348 358 355 359 353 352
100 106 131 129 109 112 112 108 106 105 101 86 77 82 90 89 88 80 67 58 59 72 73 69 59 53 48 36 28 12 359 343 345 352 351 340 340 352 351 351 359 359 359
131 186 125 120 119 116 113 113 103 99 94 102 104 95 87 92 87 80 79 74 67 64 65 69 65 50 40 43 29 5 349 345 352 353 338 336 342 356 350 8 9 6 7
267 128 125 129 123 123 107 108 102 100 108 103 104 100 100 91 84 91 97 88 82 77 64 63 59 43 27 21 12 15 5 342 317 312 321 330 355 1 352 360 13 13 12
148 130 132 120 108 113 117 121 120 105 98 101 100 101 95 92 96 91 85 78 77 79 83 74 62 54 29 11 356 353 354 329 315 322 329 354 8 357 2 4 14 21 18
110 117 108 119 118 121 124 125 108 104 107 107 107 100 90 97 97 96 89 89 85 77 65 55 51 41 32 21 7 357 352 349 339 331 358 10 17 8 5 10 16 19 27
107 107 116 117 124 131 131 118 114 113 109 108 104 95 96 94 93 99 96 92 86 75 66 52 39 37 28 15 3 358 2 3 352 346 13 19 19 15 10 18 21 24 32